FW6819 Weather Reports


Display with metric or nautical units.
time (UTC)temp
F
wind
direction
speed
MPH
gust
MPH
rain 1hr
in
rain 24hr
in
rain mn
in
humidity
%
barometer
mb
20260504221038 78 317 0.0 0.0 0.00 0.00 0.00 35 1010.4
20260504220535 79 315 4.0 6.0 0.00 0.00 0.00 35 1010.5
20260504220032 79 317 2.0 3.0 0.00 0.00 0.00 35 1010.5
20260504215528 79 317 0.0 0.0 0.00 0.00 0.00 37 1010.4
20260504215026 78 313 0.0 1.0 0.00 0.00 0.00 36 1010.5
20260504214522 79 310 2.0 3.0 0.00 0.00 0.00 35 1010.5
20260504214018 78 309 0.0 0.0 0.00 0.00 0.00 34 1010.7
20260504213514 79 308 5.0 7.0 0.00 0.00 0.00 35 1010.7
20260504213012 79 309 1.0 1.0 0.00 0.00 0.00 34 1010.6
20260504212508 78 307 4.0 5.0 0.00 0.00 0.00 34 1010.7
20260504212005 79 307 4.0 7.0 0.00 0.00 0.00 35 1010.6
20260504211502 80 310 1.0 2.0 0.00 0.00 0.00 34 1010.5
20260504210959 79 311 1.0 2.0 0.00 0.00 0.00 36 1010.6
20260504210456 78 307 1.0 2.0 0.00 0.00 0.00 36 1010.6
20260504205953 79 310 9.0 10.0 0.00 0.00 0.00 34 1010.8
20260504205450 78 312 1.0 2.0 0.00 0.00 0.00 35 1010.6
20260504204948 79 313 0.0 0.0 0.00 0.00 0.00 36 1010.6
20260504204446 78 310 1.0 2.0 0.00 0.00 0.00 35 1010.9
20260504203945 78 309 0.0 1.0 0.00 0.00 0.00 36 1010.9
20260504203443 78 307 2.0 3.0 0.00 0.00 0.00 34 1011.0
20260504202938 78 305 4.0 6.0 0.00 0.00 0.00 37 1011.2
20260504202435 77 304 5.0 7.0 0.00 0.00 0.00 36 1011.0
20260504201932 78 308 1.0 2.0 0.00 0.00 0.00 35 1011.2
20260504201429 77 307 1.0 3.0 0.00 0.00 0.00 35 1011.2
20260504200927 77 307 3.0 3.0 0.00 0.00 0.00 35 1011.1
20260504200423 78 310 6.0 7.0 0.00 0.00 0.00 36 1011.3
20260504195920 77 310 0.0 1.0 0.00 0.00 0.00 35 1011.3
20260504195416 78 312 1.0 1.0 0.00 0.00 0.00 36 1011.5
20260504194913 78 309 1.0 2.0 0.00 0.00 0.00 35 1011.6
20260504194408 77 307 1.0 1.0 0.00 0.00 0.00 38 1011.5
20260504193905 78 306 3.0 6.0 0.00 0.00 0.00 36 1011.5
20260504193402 78 305 2.0 2.0 0.00 0.00 0.00 35 1011.5
20260504192901 78 302 2.0 2.0 0.00 0.00 0.00 36 1012.0
20260504192358 76 303 3.0 3.0 0.00 0.00 0.00 37 1011.8
20260504191856 76 303 2.0 3.0 0.00 0.00 0.00 37 1011.9
20260504191354 76 303 7.0 8.0 0.00 0.00 0.00 37 1011.9
20260504190849 76 303 7.0 8.0 0.00 0.00 0.00 36 1012.0
20260504190345 77 306 5.0 6.0 0.00 0.00 0.00 37 1012.1
20260504185842 76 305 2.0 3.0 0.00 0.00 0.00 36 1012.2
20260504185339 75 303 2.0 3.0 0.00 0.00 0.00 39 1012.3
20260504184835 75 303 6.0 8.0 0.00 0.00 0.00 38 1012.5
20260504184331 75 302 6.0 7.0 0.00 0.00 0.00 38 1012.5
20260504183827 75 303 5.0 8.0 0.00 0.00 0.00 38 1012.6
20260504183324 74 302 5.0 7.0 0.00 0.00 0.00 39 1012.7
20260504182822 74 302 9.0 13.0 0.00 0.00 0.00 38 1012.9
20260504182319 75 304 1.0 3.0 0.00 0.00 0.00 40 1012.9
20260504181816 74 305 3.0 5.0 0.00 0.00 0.00 39 1012.6
20260504181314 74 305 3.0 5.0 0.00 0.00 0.00 39 1012.8
20260504180813 75 306 3.0 5.0 0.00 0.00 0.00 38 1013.1
20260504180311 74 304 3.0 5.0 0.00 0.00 0.00 39 1013.2
20260504175808 73 303 5.0 7.0 0.00 0.00 0.00 38 1013.3
20260504175305 74 303 2.0 3.0 0.00 0.00 0.00 39 1013.2
20260504174803 74 304 2.0 2.0 0.00 0.00 0.00 37 1013.2
20260504174300 73 301 5.0 7.0 0.00 0.00 0.00 38 1013.1
20260504173757 73 300 6.0 9.0 0.00 0.00 0.00 38 1013.4
20260504173254 73 302 4.0 5.0 0.00 0.00 0.00 38 1013.3
20260504172750 73 300 2.0 3.0 0.00 0.00 0.00 37 1013.7
20260504172247 73 298 5.0 6.0 0.00 0.00 0.00 38 1013.5
20260504171743 73 299 3.0 5.0 0.00 0.00 0.00 37 1013.5
20260504171240 72 298 1.0 2.0 0.00 0.00 0.00 39 1013.8
20260504170737 72 295 2.0 3.0 0.00 0.00 0.00 38 1013.8
20260504170235 72 294 3.0 6.0 0.00 0.00 0.00 37 1013.8
20260504160153 72 139 2.0 3.0 0.00 0.00 0.00 38 1014.6
20260504151121 69 121 4.0 5.0 0.00 0.00 0.00 38 1014.6
20260504150618 69 121 0.0 1.0 0.00 0.00 0.00 41 1015.0
20260504150115 69 120 0.0 1.0 0.00 0.00 0.00 40 1014.8
20260504141044 63 124 4.0 6.0 0.00 0.00 0.00 51 1015.3
20260504140540 62 124 2.0 3.0 0.00 0.00 0.00 51 1015.4
20260504130504 58 124 5.0 6.0 0.00 0.00 0.00 57 1015.6
20260504110351 49 124 0.0 0.0 0.00 0.00 0.00 72 1016.3
20260504100309 50 124 0.0 0.0 0.00 0.00 0.00 71 1016.4
20260504081702 48 124 0.0 0.0 0.00 0.00 0.00 75 1016.3
20260504081159 48 124 0.0 0.0 0.00 0.00 0.00 76 1016.4
20260504080655 48 124 0.0 0.0 0.00 0.00 0.00 77 1016.2
20260504080152 48 124 0.0 0.0 0.00 0.00 0.00 76 1016.4
20260504070120 45 124 0.0 0.0 0.00 0.00 0.00 81 1016.5
20260504050508 43 124 0.0 0.0 0.00 0.00 0.00 80 1016.6
20260504050005 43 124 0.0 0.0 0.00 0.00 0.00 80 1016.7
20260504045501 42 124 0.0 0.0 0.00 0.00 0.00 79 1016.6
20260504044957 42 124 0.0 0.0 0.00 0.00 0.00 81 1016.6
20260504044455 42 124 0.0 0.0 0.00 0.00 0.00 82 1016.5
20260504043952 41 124 0.0 0.0 0.00 0.00 0.00 83 1016.5
20260504043449 41 124 0.0 0.0 0.00 0.00 0.00 82 1016.7
20260504042946 41 124 0.0 0.0 0.00 0.00 0.00 82 1016.7
20260504042443 41 124 0.0 0.0 0.00 0.00 0.00 81 1016.4
20260504041940 41 124 0.0 0.0 0.00 0.00 0.00 81 1016.5
20260504041436 41 124 0.0 0.0 0.00 0.00 0.00 81 1016.5
20260504040932 41 124 0.0 0.0 0.00 0.00 0.00 81 1016.5
20260504040430 42 124 0.0 0.0 0.00 0.00 0.00 81 1016.7
20260504035925 42 124 0.0 0.0 0.00 0.00 0.00 81 1016.6
20260504035423 42 124 0.0 0.0 0.00 0.00 0.00 81 1016.8
20260504034919 41 124 0.0 0.0 0.00 0.00 0.00 83 1016.6
20260504034417 41 124 0.0 0.0 0.00 0.00 0.00 82 1016.4
20260504033914 41 124 0.0 0.0 0.00 0.00 0.00 82 1016.5
20260504033412 41 124 0.0 0.0 0.00 0.00 0.00 82 1016.6
20260504032909 42 124 0.0 0.0 0.00 0.00 0.00 82 1016.5
20260504032405 42 124 0.0 0.0 0.00 0.00 0.00 82 1016.5
20260504031902 42 124 0.0 0.0 0.00 0.00 0.00 81 1016.3
20260504031359 42 124 0.0 0.0 0.00 0.00 0.00 80 1016.4
20260504030855 42 124 0.0 0.0 0.00 0.00 0.00 79 1016.3
20260504030353 42 124 0.0 0.0 0.00 0.00 0.00 79 1016.3
20260504025849 43 124 0.0 0.0 0.00 0.00 0.00 77 1016.3
20260504025346 43 124 0.0 0.0 0.00 0.00 0.00 76 1016.2
20260504024843 44 124 0.0 0.0 0.00 0.00 0.00 76 1016.2
20260504024339 44 124 0.0 0.0 0.00 0.00 0.00 76 1016.1
20260504023836 44 124 0.0 0.0 0.00 0.00 0.00 75 1016.2
20260504023333 44 124 0.0 0.0 0.00 0.00 0.00 75 1016.0
20260504022828 43 124 0.0 0.0 0.00 0.00 0.00 76 1016.0
20260504022326 44 124 0.0 0.0 0.00 0.00 0.00 75 1016.1
20260504021822 44 124 0.0 0.0 0.00 0.00 0.00 74 1016.2
20260504021320 44 124 0.0 0.0 0.00 0.00 0.00 73 1016.2
20260504020816 45 124 0.0 0.0 0.00 0.00 0.00 73 1016.1
20260504020313 45 124 0.0 0.0 0.00 0.00 0.00 72 1016.2
20260504015809 45 124 0.0 0.0 0.00 0.00 0.00 71 1015.9
20260504015305 46 124 0.0 0.0 0.00 0.00 0.00 69 1015.8
20260504014801 46 124 0.0 0.0 0.00 0.00 0.00 68 1016.0
20260504014258 46 124 0.0 0.0 0.00 0.00 0.00 67 1016.0
20260504013755 47 124 0.0 0.0 0.00 0.00 0.00 65 1016.0
20260504013253 47 124 0.0 0.0 0.00 0.00 0.00 65 1015.9
20260504012749 48 124 0.0 0.0 0.00 0.00 0.00 64 1015.8
20260504012247 48 124 0.0 0.0 0.00 0.00 0.00 64 1015.8
20260504011744 48 124 0.0 0.0 0.00 0.00 0.00 63 1015.7
20260504011241 48 124 0.0 0.0 0.00 0.00 0.00 62 1015.7
20260504010737 49 124 0.0 0.0 0.00 0.00 0.00 60 1015.7
20260504010232 50 124 0.0 0.0 0.00 0.00 0.00 57 1015.7
20260504005730 50 124 0.0 0.0 0.00 0.00 0.00 57 1015.9
20260504005227 50 124 0.0 0.0 0.00 0.00 0.00 58 1015.5
20260504004724 50 124 0.0 0.0 0.00 0.00 0.00 57 1015.7
20260504004221 51 124 0.0 0.0 0.00 0.00 0.00 55 1015.6
20260504003718 52 124 0.0 0.0 0.00 0.00 0.00 53 1015.5
20260504003215 53 124 0.0 0.0 0.00 0.00 0.00 51 1015.5
20260504002711 53 124 0.0 0.0 0.00 0.00 0.00 50 1015.5
20260504002208 54 124 0.0 0.0 0.00 0.00 0.00 49 1015.3
20260504001706 54 124 0.0 0.0 0.00 0.00 0.00 48 1015.1
20260504001203 55 124 0.0 0.0 0.00 0.00 0.00 46 1015.2
20260504000659 56 124 0.0 0.0 0.00 0.00 0.00 44 1015.2
20260504000157 57 124 0.0 0.0 0.00 0.00 0.00 41 1015.2
20260503235655 58 124 0.0 0.0 0.00 0.00 0.00 40 1015.1
20260503235151 59 124 0.0 0.0 0.00 0.00 0.00 38 1015.1
20260503234649 60 124 0.0 0.0 0.00 0.00 0.00 37 1014.9
20260503234147 60 124 0.0 0.0 0.00 0.00 0.00 36 1014.7
20260503233644 61 124 2.0 3.0 0.00 0.00 0.00 35 1014.9
20260503233139 61 124 2.0 2.0 0.00 0.00 0.00 35 1015.0
20260503232636 62 124 2.0 2.0 0.00 0.00 0.00 34 1014.9
20260503232134 62 124 2.0 2.0 0.00 0.00 0.00 33 1014.9
20260503231632 62 124 2.0 2.0 0.00 0.00 0.00 34 1014.8
20260503231128 62 124 3.0 3.0 0.00 0.00 0.00 33 1014.9
20260503230625 62 124 2.0 2.0 0.00 0.00 0.00 34 1014.9
20260503230122 63 124 2.0 3.0 0.00 0.00 0.00 32 1015.1
20260503225620 63 124 3.0 5.0 0.00 0.00 0.00 32 1014.9
20260503225119 62 124 0.0 0.0 0.00 0.00 0.00 33 1014.8
20260503224617 63 124 3.0 3.0 0.00 0.00 0.00 33 1015.0
20260503224115 62 124 5.0 6.0 0.00 0.00 0.00 33 1015.0
20260503223612 63 124 6.0 8.0 0.00 0.00 0.00 32 1015.2
20260503223108 62 124 3.0 5.0 0.00 0.00 0.00 32 1014.9
20260503222606 63 124 6.0 8.0 0.00 0.00 0.00 33 1014.9
20260503222103 63 124 5.0 7.0 0.00 0.00 0.00 32 1014.9
20260503221602 62 124 7.0 9.0 0.00 0.00 0.00 33 1014.9